Location: *
(43.6428°N, 11.5461°E)
Time: 05:21:42
(UTC+00:00)

NOSS 3-2 (A) - Pass Details

Date: 21 October 2019
Orbit: 815 x 1393 km, 63.4° (Epoch: 19 November)

Event Time Altitude Azimuth Distance (km) Brightness Sun altitude
Rises 17:31:36 0° 204° (SSW) 3,362 6.7 -13.4°
Reaches altitude 10° 17:33:57 10° 201° (SSW) 2,467 5.9 -13.8°
Maximum altitude 17:39:33 64° 121° (ESE) 1,005 3.3 -14.8°
Drops below altitude 10° 17:45:52 10° 41° (NE) 2,779 5.5 -16.0°
Enters shadow 17:46:24 - 41° (NE) 2,976 5.7 -16.1°
